This is the latest recevied weather packets stored in our database for station/object JH4GLG-13. If no packets are shown the sender has not sent any weather packets the latest 10 day(s).
| Time | Temp. | Humidity | Pressure | Rain* | Wind** | Luminosity | Snow |
|---|---|---|---|---|---|---|---|
| 1777375516 | 21.11° C | 53% | 1012.4 hPa | 0 mm | - | - | - |
| 1777374615 | 21.11° C | 55% | 1012.2 hPa | 0 mm | - | - | - |
| 1777373720 | 21.11° C | 53% | 1011.8 hPa | 0 mm | - | - | - |
| 1777373716 | 20.56° C | 53% | 1011.8 hPa | 0 mm | - | - | - |
| 1777372815 | 21.11° C | 50% | 1011.6 hPa | 0 mm | - | - | - |
| 1777371916 | 21.11° C | 49% | 1011.4 hPa | 0 mm | - | - | - |
| 1777371015 | 21.67° C | 46% | 1011.1 hPa | 0 mm | - | - | - |
| 1777370164 | 22.22° C | 48% | 1010.9 hPa | 0 mm | - | - | - |
| 1777370119 | 22.22° C | 48% | 1010.9 hPa | 0 mm | - | - | - |
| 1777370116 | 22.22° C | 49% | 1010.9 hPa | 0 mm | - | - | - |
| 1777369214 | 22.22° C | 46% | 1010.7 hPa | 0 mm | - | - | - |
| 1777368319 | - | - | 1010.4 hPa | 0 mm | - | - | - |
| 1777368315 | 22.22° C | 40% | 1010.4 hPa | 0 mm | - | - | - |
| 1777367414 | 22.78° C | 38% | 1010.1 hPa | 0 mm | - | - | - |
| 1777366551 | 22.78° C | 35% | 1010.1 hPa | 0 mm | - | - | - |
| 1777366515 | 22.78° C | 35% | 1010.1 hPa | 0 mm | - | - | - |
| 1777365613 | 23.33° C | 36% | 1010.1 hPa | 0 mm | - | - | - |
| 1777364714 | 23.33° C | 38% | 1010.1 hPa | 0 mm | - | - | - |
| 1777363813 | 23.33° C | 39% | 1009.9 hPa | 0 mm | - | - | - |
| 1777362914 | 23.89° C | 39% | 1009.9 hPa | 0 mm | - | - | - |
| 1777362013 | 23.89° C | 39% | 1009.9 hPa | 0 mm | - | - | - |
| 1777361114 | 24.44° C | 36% | 1009.9 hPa | 0 mm | - | - | - |
| 1777360213 | 25° C | 38% | 1009.9 hPa | 0 mm | - | - | - |
| 1777359314 | 24.44° C | 44% | 1009.8 hPa | 0 mm | - | - | - |
| 1777358412 | 24.44° C | 54% | 1009.9 hPa | 0 mm | - | - | - |
* Rain latest hour (hover to see other rain measurements)
** Current wind speed in m/s (hover to see current wind gust speed)